Time,TemperatureF,DewpointF,PressureIn,WindDirection,WindDirectionDegrees,WindSpeedMPH,WindSpeedGustMPH,Humidity,HourlyPrecipIn,Conditions,Clouds,dailyrainin,SolarRadiationWatts/m^2,SoftwareType,DateUTC
2013-07-10 00:00:00,56.0,51.9,30.00,SW,234,0.0,0.0,86,0.00,,,0.00,0,WeatherCatV1.20B566,2013-07-10 07:00:00,
2013-07-10 00:05:00,56.0,51.9,30.00,SW,234,0.0,0.0,86,0.00,,,0.00,0,WeatherCatV1.20B566,2013-07-10 07:05:00,
2013-07-10 00:10:00,55.9,51.8,30.00,SW,234,0.0,0.0,86,0.00,,,0.00,0,WeatherCatV1.20B566,2013-07-10 07:10:00,
2013-07-10 00:15:00,55.9,51.8,30.00,SW,234,0.0,0.0,86,0.00,,,0.00,0,WeatherCatV1.20B566,2013-07-10 07:15:00,
2013-07-10 00:20:00,55.8,51.7,30.00,SW,234,0.0,0.0,86,0.00,,,0.00,0,WeatherCatV1.20B566,2013-07-10 07:20:00,
2013-07-10 00:25:00,55.7,51.6,30.00,SW,234,0.0,0.0,86,0.00,,,0.00,0,WeatherCatV1.20B566,2013-07-10 07:25:00,
2013-07-10 00:30:00,55.7,51.6,30.00,SW,234,0.0,0.0,86,0.00,,,0.00,0,WeatherCatV1.20B566,2013-07-10 07:30:00,
2013-07-10 00:35:00,55.7,51.6,30.00,SW,234,0.0,0.0,86,0.00,,,0.00,0,WeatherCatV1.20B566,2013-07-10 07:35:00,
2013-07-10 00:40:00,55.6,51.8,30.00,SW,234,0.0,0.0,87,0.00,,,0.00,0,WeatherCatV1.20B566,2013-07-10 07:40:00,
2013-07-10 00:45:00,55.6,51.8,30.00,SW,234,0.0,0.0,87,0.00,,,0.00,0,WeatherCatV1.20B566,2013-07-10 07:45:00,
2013-07-10 00:50:00,55.5,51.7,30.00,SW,234,0.0,0.0,87,0.00,,,0.00,0,WeatherCatV1.20B566,2013-07-10 07:50:00,
2013-07-10 00:55:00,55.5,51.7,30.00,SW,234,0.0,0.0,87,0.00,,,0.00,0,WeatherCatV1.20B566,2013-07-10 07:55:00,
2013-07-10 01:00:00,55.5,51.7,30.00,SW,234,0.0,0.0,87,0.00,,,0.00,0,WeatherCatV1.20B566,2013-07-10 08:00:00,
2013-07-10 01:05:00,55.5,51.7,30.00,SW,234,0.0,0.0,87,0.00,,,0.00,0,WeatherCatV1.20B566,2013-07-10 08:05:00,
2013-07-10 01:10:00,55.5,51.7,30.00,SW,234,0.0,0.0,87,0.00,,,0.00,0,WeatherCatV1.20B566,2013-07-10 08:10:00,
2013-07-10 01:12:00,55.6,51.8,30.00,SW,234,0.0,0.0,87,0.00,,,0.00,0,WeatherCatV1.20B566,2013-07-10 08:12:00,
2013-07-10 01:17:00,55.6,51.8,30.00,SW,234,0.0,0.0,87,0.00,,,0.00,0,WeatherCatV1.20B566,2013-07-10 08:17:00,
2013-07-10 01:22:00,55.7,51.6,30.00,SW,234,0.0,0.0,86,0.00,,,0.00,0,WeatherCatV1.20B566,2013-07-10 08:22:00,
2013-07-10 01:27:00,55.7,51.6,30.00,SW,234,0.0,0.0,86,0.00,,,0.00,0,WeatherCatV1.20B566,2013-07-10 08:27:00,
2013-07-10 01:32:00,55.7,51.9,30.00,SW,234,0.0,0.0,87,0.00,,,0.00,0,WeatherCatV1.20B566,2013-07-10 08:32:00,
2013-07-10 01:37:00,55.7,51.9,30.00,SW,234,0.0,0.0,87,0.00,,,0.00,0,WeatherCatV1.20B566,2013-07-10 08:37:00,
2013-07-10 01:42:00,55.7,51.9,30.00,SW,234,0.0,0.0,87,0.00,,,0.00,0,WeatherCatV1.20B566,2013-07-10 08:42:00,
2013-07-10 01:47:00,55.6,51.8,30.00,SW,234,0.0,0.0,87,0.00,,,0.00,0,WeatherCatV1.20B566,2013-07-10 08:47:00,
2013-07-10 01:52:00,55.5,51.7,30.00,SW,234,0.0,0.0,87,0.00,,,0.00,0,WeatherCatV1.20B566,2013-07-10 08:52:00,
2013-07-10 01:57:00,55.5,51.7,30.00,SW,234,0.0,0.0,87,0.00,,,0.00,0,WeatherCatV1.20B566,2013-07-10 08:57:00,
2013-07-10 02:02:00,55.4,51.6,30.00,SW,234,0.0,0.0,87,0.00,,,0.00,0,WeatherCatV1.20B566,2013-07-10 09:02:00,
2013-07-10 02:07:00,55.4,51.6,30.00,SW,234,0.0,0.0,87,0.00,,,0.00,0,WeatherCatV1.20B566,2013-07-10 09:07:00,
2013-07-10 02:12:00,55.4,51.6,30.00,SW,234,0.0,0.0,87,0.00,,,0.00,0,WeatherCatV1.20B566,2013-07-10 09:12:00,
2013-07-10 02:17:00,55.4,51.6,30.00,SW,234,0.0,0.0,87,0.00,,,0.00,0,WeatherCatV1.20B566,2013-07-10 09:17:00,
2013-07-10 02:22:00,55.4,51.6,30.00,SW,234,0.0,0.0,87,0.00,,,0.00,0,WeatherCatV1.20B566,2013-07-10 09:22:00,
2013-07-10 02:27:00,55.3,51.5,30.00,SW,234,0.0,0.0,87,0.00,,,0.00,0,WeatherCatV1.20B566,2013-07-10 09:27:00,
2013-07-10 02:32:00,55.2,51.4,30.01,SW,234,0.0,0.0,87,0.00,,,0.00,0,WeatherCatV1.20B566,2013-07-10 09:32:00,
2013-07-10 02:37:00,55.3,51.5,30.01,SW,234,0.0,0.0,87,0.00,,,0.00,0,WeatherCatV1.20B566,2013-07-10 09:37:00,
2013-07-10 02:42:00,55.4,51.6,30.01,SW,234,0.0,0.0,87,0.00,,,0.00,0,WeatherCatV1.20B566,2013-07-10 09:42:00,
2013-07-10 02:47:00,55.4,51.6,30.01,SW,234,0.0,0.0,87,0.00,,,0.00,0,WeatherCatV1.20B566,2013-07-10 09:47:00,
2013-07-10 02:52:00,55.4,51.6,30.01,SW,234,0.0,0.0,87,0.00,,,0.00,0,WeatherCatV1.20B566,2013-07-10 09:52:00,
2013-07-10 02:57:00,55.4,51.6,30.00,SW,234,0.0,0.0,87,0.00,,,0.00,0,WeatherCatV1.20B566,2013-07-10 09:57:00,
2013-07-10 03:02:00,55.6,51.8,30.00,SW,234,0.0,0.0,87,0.00,,,0.00,0,WeatherCatV1.20B566,2013-07-10 10:02:00,
2013-07-10 03:07:00,55.8,51.7,30.01,SW,234,0.0,0.0,86,0.00,,,0.00,0,WeatherCatV1.20B566,2013-07-10 10:07:00,
2013-07-10 03:12:00,55.9,51.8,30.00,SW,234,0.0,0.0,86,0.00,,,0.00,0,WeatherCatV1.20B566,2013-07-10 10:12:00,
2013-07-10 03:17:00,55.9,51.8,30.00,SW,234,0.0,0.0,86,0.00,,,0.00,0,WeatherCatV1.20B566,2013-07-10 10:17:00,
2013-07-10 03:22:00,55.9,51.8,30.00,SW,234,0.0,0.0,86,0.00,,,0.00,0,WeatherCatV1.20B566,2013-07-10 10:22:00,
2013-07-10 03:27:00,56.1,52.0,30.00,SW,234,0.0,0.0,86,0.00,,,0.00,0,WeatherCatV1.20B566,2013-07-10 10:27:00,
2013-07-10 03:32:00,56.2,52.1,30.00,SW,234,0.0,1.0,86,0.00,,,0.00,0,WeatherCatV1.20B566,2013-07-10 10:32:00,
2013-07-10 03:37:00,56.2,52.1,30.00,SW,234,0.0,0.0,86,0.00,,,0.00,0,WeatherCatV1.20B566,2013-07-10 10:37:00,
2013-07-10 03:42:00,56.0,52.2,30.00,SW,234,0.0,0.0,87,0.00,,,0.00,0,WeatherCatV1.20B566,2013-07-10 10:42:00,
2013-07-10 03:47:00,55.9,51.8,30.00,SW,234,0.0,0.0,86,0.00,,,0.00,0,WeatherCatV1.20B566,2013-07-10 10:47:00,
2013-07-10 03:52:00,55.8,52.0,30.00,SW,234,0.0,0.0,87,0.00,,,0.00,0,WeatherCatV1.20B566,2013-07-10 10:52:00,
2013-07-10 03:57:00,55.7,51.9,30.00,SW,234,0.0,0.0,87,0.00,,,0.00,0,WeatherCatV1.20B566,2013-07-10 10:57:00,
2013-07-10 04:02:00,55.6,51.8,30.00,SW,234,0.0,0.0,87,0.00,,,0.00,0,WeatherCatV1.20B566,2013-07-10 11:02:00,
2013-07-10 04:07:00,55.5,51.7,30.00,SW,234,0.0,0.0,87,0.00,,,0.00,0,WeatherCatV1.20B566,2013-07-10 11:07:00,
2013-07-10 04:12:00,55.4,51.6,30.00,SW,234,0.0,0.0,87,0.00,,,0.00,0,WeatherCatV1.20B566,2013-07-10 11:12:00,
2013-07-10 04:17:00,55.3,51.5,30.00,SW,234,0.0,0.0,87,0.00,,,0.00,0,WeatherCatV1.20B566,2013-07-10 11:17:00,
2013-07-10 04:22:00,55.2,51.4,30.00,SW,234,0.0,0.0,87,0.00,,,0.00,0,WeatherCatV1.20B566,2013-07-10 11:22:00,
2013-07-10 04:27:00,55.1,51.3,30.00,SW,234,0.0,0.0,87,0.00,,,0.00,0,WeatherCatV1.20B566,2013-07-10 11:27:00,
2013-07-10 04:32:00,55.0,51.2,30.00,SW,234,0.0,0.0,87,0.00,,,0.00,0,WeatherCatV1.20B566,2013-07-10 11:32:00,
2013-07-10 04:37:00,54.8,51.0,30.01,SW,234,0.0,0.0,87,0.00,,,0.00,0,WeatherCatV1.20B566,2013-07-10 11:37:00,
2013-07-10 04:42:00,54.7,50.9,30.01,SW,234,0.0,0.0,87,0.00,,,0.00,0,WeatherCatV1.20B566,2013-07-10 11:42:00,
2013-07-10 04:47:00,54.5,50.7,30.01,SW,234,0.0,0.0,87,0.00,,,0.00,0,WeatherCatV1.20B566,2013-07-10 11:47:00,
2013-07-10 04:52:00,54.3,50.5,30.01,SW,234,0.0,0.0,87,0.00,,,0.00,0,WeatherCatV1.20B566,2013-07-10 11:52:00,
2013-07-10 04:57:00,54.2,50.4,30.01,SW,234,0.0,0.0,87,0.00,,,0.00,0,WeatherCatV1.20B566,2013-07-10 11:57:00,
2013-07-10 05:01:00,54.2,50.4,30.01,SW,235,0.0,0.0,87,0.00,,,0.00,0,WeatherCatV1.20B566,2013-07-10 12:01:00,
2013-07-10 05:06:00,54.2,50.4,30.01,SSW,202,0.0,0.0,87,0.00,,,0.00,0,WeatherCatV1.20B566,2013-07-10 12:06:00,
2013-07-10 05:11:00,54.0,50.2,30.01,SSW,203,0.0,0.0,87,0.00,,,0.00,0,WeatherCatV1.20B566,2013-07-10 12:11:00,
2013-07-10 05:16:00,53.8,50.0,30.01,WSW,242,0.0,0.0,87,0.00,,,0.00,0,WeatherCatV1.20B566,2013-07-10 12:16:00,
2013-07-10 05:21:00,53.7,49.9,30.01,WSW,242,0.0,0.0,87,0.00,,,0.00,0,WeatherCatV1.20B566,2013-07-10 12:21:00,
2013-07-10 05:26:00,53.6,49.8,30.01,WSW,242,0.0,0.0,87,0.00,,,0.00,0,WeatherCatV1.20B566,2013-07-10 12:26:00,
2013-07-10 05:31:00,53.7,49.9,30.01,WSW,242,0.0,0.0,87,0.00,,,0.00,5,WeatherCatV1.20B566,2013-07-10 12:31:00,
2013-07-10 05:36:00,53.9,49.8,30.01,WSW,242,0.0,0.0,86,0.00,,,0.00,5,WeatherCatV1.20B566,2013-07-10 12:36:00,
2013-07-10 05:41:00,54.0,49.9,30.01,WSW,242,0.0,0.0,86,0.00,,,0.00,7,WeatherCatV1.20B566,2013-07-10 12:41:00,
2013-07-10 05:46:00,54.0,49.9,30.01,WSW,242,0.0,0.0,86,0.00,,,0.00,9,WeatherCatV1.20B566,2013-07-10 12:46:00,
2013-07-10 05:51:00,53.9,49.8,30.01,WSW,242,0.0,0.0,86,0.00,,,0.00,11,WeatherCatV1.20B566,2013-07-10 12:51:00,
2013-07-10 05:56:00,53.8,49.7,30.01,WSW,242,0.0,1.0,86,0.00,,,0.00,12,WeatherCatV1.20B566,2013-07-10 12:56:00,
2013-07-10 06:01:00,53.8,49.7,30.01,WSW,242,0.0,0.0,86,0.00,,,0.00,12,WeatherCatV1.20B566,2013-07-10 13:01:00,
2013-07-10 06:06:00,53.9,49.8,30.01,WSW,242,0.0,0.0,86,0.00,,,0.00,14,WeatherCatV1.20B566,2013-07-10 13:06:00,
2013-07-10 06:11:00,53.9,49.8,30.01,WSW,242,0.0,0.0,86,0.00,,,0.00,16,WeatherCatV1.20B566,2013-07-10 13:11:00,
2013-07-10 06:16:00,53.9,49.8,30.01,WSW,242,0.0,0.0,86,0.00,,,0.00,16,WeatherCatV1.20B566,2013-07-10 13:16:00,
2013-07-10 06:21:00,53.9,49.8,30.01,WSW,242,0.0,0.0,86,0.00,,,0.00,18,WeatherCatV1.20B566,2013-07-10 13:21:00,
2013-07-10 06:26:00,54.0,49.9,30.01,WSW,242,0.0,0.0,86,0.00,,,0.00,18,WeatherCatV1.20B566,2013-07-10 13:26:00,
2013-07-10 06:31:00,53.9,49.8,30.01,WSW,242,0.0,0.0,86,0.00,,,0.00,19,WeatherCatV1.20B566,2013-07-10 13:31:00,
2013-07-10 06:36:00,54.0,49.9,30.02,WSW,242,0.0,0.0,86,0.00,,,0.00,21,WeatherCatV1.20B566,2013-07-10 13:36:00,
2013-07-10 06:41:00,54.0,49.9,30.02,WSW,242,0.0,0.0,86,0.00,,,0.00,21,WeatherCatV1.20B566,2013-07-10 13:41:00,
2013-07-10 06:46:00,54.1,50.0,30.02,WSW,242,0.0,0.0,86,0.00,,,0.00,23,WeatherCatV1.20B566,2013-07-10 13:46:00,
2013-07-10 06:51:00,54.2,50.1,30.02,WSW,242,0.0,0.0,86,0.00,,,0.00,23,WeatherCatV1.20B566,2013-07-10 13:51:00,
2013-07-10 06:56:00,54.2,50.1,30.02,WSW,242,0.0,0.0,86,0.00,,,0.00,25,WeatherCatV1.20B566,2013-07-10 13:56:00,
2013-07-10 07:01:00,54.4,50.3,30.02,WSW,242,0.0,0.0,86,0.00,,,0.00,25,WeatherCatV1.20B566,2013-07-10 14:01:00,
2013-07-10 07:06:00,54.6,50.5,30.02,WSW,242,0.0,0.0,86,0.00,,,0.00,26,WeatherCatV1.20B566,2013-07-10 14:06:00,
2013-07-10 07:11:00,54.6,50.5,30.02,WSW,242,0.0,0.0,86,0.00,,,0.00,26,WeatherCatV1.20B566,2013-07-10 14:11:00,
2013-07-10 07:16:00,54.7,50.6,30.02,WSW,242,0.0,0.0,86,0.00,,,0.00,28,WeatherCatV1.20B566,2013-07-10 14:16:00,
2013-07-10 07:21:00,54.8,50.7,30.02,WSW,242,0.0,0.0,86,0.00,,,0.00,28,WeatherCatV1.20B566,2013-07-10 14:21:00,
2013-07-10 07:26:00,55.1,51.0,30.02,WSW,242,0.0,0.0,86,0.00,,,0.00,28,WeatherCatV1.20B566,2013-07-10 14:26:00,
2013-07-10 07:31:00,55.2,51.1,30.02,WSW,242,0.0,0.0,86,0.00,,,0.00,30,WeatherCatV1.20B566,2013-07-10 14:31:00,
2013-07-10 07:36:00,55.4,51.3,30.02,WSW,242,0.0,0.0,86,0.00,,,0.00,49,WeatherCatV1.20B566,2013-07-10 14:36:00,
2013-07-10 07:41:00,55.7,51.6,30.02,WSW,242,0.0,0.0,86,0.00,,,0.00,39,WeatherCatV1.20B566,2013-07-10 14:41:00,
2013-07-10 07:46:00,55.9,51.8,30.02,WSW,242,0.0,0.0,86,0.00,,,0.00,35,WeatherCatV1.20B566,2013-07-10 14:46:00,
2013-07-10 07:51:00,56.1,52.0,30.02,WSW,242,0.0,1.0,86,0.00,,,0.00,72,WeatherCatV1.20B566,2013-07-10 14:51:00,
2013-07-10 07:56:00,56.3,52.2,30.02,WSW,242,0.0,0.0,86,0.00,,,0.00,54,WeatherCatV1.20B566,2013-07-10 14:56:00,
2013-07-10 08:01:00,56.4,52.3,30.02,WSW,242,0.0,0.0,86,0.00,,,0.00,46,WeatherCatV1.20B566,2013-07-10 15:01:00,
2013-07-10 08:06:00,56.5,52.4,30.02,WSW,242,0.0,0.0,86,0.00,,,0.00,58,WeatherCatV1.20B566,2013-07-10 15:06:00,
2013-07-10 08:11:00,56.5,52.4,30.02,WSW,242,1.0,2.0,86,0.00,,,0.00,97,WeatherCatV1.20B566,2013-07-10 15:11:00,
2013-07-10 08:16:00,56.8,53.0,30.02,SSW,213,0.0,1.0,87,0.00,,,0.00,90,WeatherCatV1.20B566,2013-07-10 15:16:00,
2013-07-10 08:21:00,57.2,53.4,30.02,West,270,2.0,3.0,87,0.00,,,0.00,156,WeatherCatV1.20B566,2013-07-10 15:21:00,
2013-07-10 08:26:00,57.3,53.5,30.02,NW,305,0.0,2.0,87,0.00,,,0.00,274,WeatherCatV1.20B566,2013-07-10 15:26:00,
2013-07-10 08:31:00,57.6,53.8,30.02,NW,305,0.0,2.0,87,0.00,,,0.00,401,WeatherCatV1.20B566,2013-07-10 15:31:00,
2013-07-10 08:36:00,57.8,54.0,30.02,WSW,252,0.0,5.0,87,0.00,,,0.00,429,WeatherCatV1.20B566,2013-07-10 15:36:00,
2013-07-10 08:41:00,58.0,54.2,30.02,NW,313,0.0,4.0,87,0.00,,,0.00,431,WeatherCatV1.20B566,2013-07-10 15:41:00,
2013-07-10 08:46:00,58.4,54.5,30.02,WSW,252,3.0,5.0,87,0.00,,,0.00,513,WeatherCatV1.20B566,2013-07-10 15:46:00,
2013-07-10 08:51:00,58.6,54.4,30.02,WSW,241,3.0,5.0,86,0.00,,,0.00,596,WeatherCatV1.20B566,2013-07-10 15:51:00,
2013-07-10 08:56:00,58.9,54.7,30.02,SW,234,4.0,4.0,86,0.00,,,0.00,438,WeatherCatV1.20B566,2013-07-10 15:56:00,
2013-07-10 09:01:00,59.0,54.5,30.03,West,267,4.0,5.0,85,0.00,,,0.00,227,WeatherCatV1.20B566,2013-07-10 16:01:00,
2013-07-10 09:06:00,58.9,54.4,30.03,NW,318,2.0,4.0,85,0.00,,,0.00,213,WeatherCatV1.20B566,2013-07-10 16:06:00,
2013-07-10 09:11:00,58.7,54.2,30.03,WSW,247,3.0,3.0,85,0.00,,,0.00,183,WeatherCatV1.20B566,2013-07-10 16:11:00,
2013-07-10 09:16:00,58.6,54.1,30.03,WSW,246,0.0,5.0,85,0.00,,,0.00,162,WeatherCatV1.20B566,2013-07-10 16:16:00,
2013-07-10 09:21:00,58.6,54.1,30.03,WNW,302,0.0,4.0,85,0.00,,,0.00,218,WeatherCatV1.20B566,2013-07-10 16:21:00,
2013-07-10 09:26:00,58.9,54.7,30.03,WNW,301,0.0,0.0,86,0.00,,,0.00,255,WeatherCatV1.20B566,2013-07-10 16:26:00,
2013-07-10 09:31:00,59.3,54.8,30.03,WNW,300,2.0,3.0,85,0.00,,,0.00,279,WeatherCatV1.20B566,2013-07-10 16:31:00,
2013-07-10 09:36:00,59.8,55.0,30.03,WNW,300,0.0,2.0,84,0.00,,,0.00,255,WeatherCatV1.20B566,2013-07-10 16:36:00,
2013-07-10 09:41:00,60.1,55.2,30.03,NNE,25,0.0,1.0,84,0.00,,,0.00,253,WeatherCatV1.20B566,2013-07-10 16:41:00,
2013-07-10 09:46:00,60.4,55.2,30.03,WNW,302,0.0,4.0,83,0.00,,,0.00,244,WeatherCatV1.20B566,2013-07-10 16:46:00,
2013-07-10 09:51:00,60.6,55.4,30.03,WNW,282,2.0,2.0,83,0.00,,,0.00,250,WeatherCatV1.20B566,2013-07-10 16:51:00,
2013-07-10 09:56:00,60.8,55.3,30.03,West,265,0.0,2.0,82,0.00,,,0.00,241,WeatherCatV1.20B566,2013-07-10 16:56:00,
2013-07-10 10:01:00,61.0,55.5,30.03,West,271,0.0,1.0,82,0.00,,,0.00,193,WeatherCatV1.20B566,2013-07-10 17:01:00,
2013-07-10 10:06:00,61.1,55.6,30.03,West,274,0.0,2.0,82,0.00,,,0.00,185,WeatherCatV1.20B566,2013-07-10 17:06:00,
2013-07-10 10:11:00,61.2,55.7,30.03,West,275,0.0,0.0,82,0.00,,,0.00,218,WeatherCatV1.20B566,2013-07-10 17:11:00,
2013-07-10 10:16:00,61.3,55.4,30.03,North,9,0.0,3.0,81,0.00,,,0.00,236,WeatherCatV1.20B566,2013-07-10 17:16:00,
2013-07-10 10:21:00,61.4,55.5,30.03,NNE,20,1.0,4.0,81,0.00,,,0.00,248,WeatherCatV1.20B566,2013-07-10 17:21:00,
2013-07-10 10:26:00,61.5,55.6,30.03,NE,36,2.0,2.0,81,0.00,,,0.00,278,WeatherCatV1.20B566,2013-07-10 17:26:00,
2013-07-10 10:31:00,61.6,56.0,30.03,West,275,0.0,2.0,82,0.00,,,0.00,364,WeatherCatV1.20B566,2013-07-10 17:31:00,
2013-07-10 10:36:00,62.1,56.5,30.03,NW,319,0.0,1.0,82,0.00,,,0.00,320,WeatherCatV1.20B566,2013-07-10 17:36:00,
2013-07-10 10:41:00,62.4,56.5,30.03,North,11,3.0,5.0,81,0.00,,,0.00,330,WeatherCatV1.20B566,2013-07-10 17:41:00,
2013-07-10 10:46:00,62.6,56.7,30.03,North,9,1.0,6.0,81,0.00,,,0.00,355,WeatherCatV1.20B566,2013-07-10 17:46:00,
2013-07-10 10:51:00,62.6,56.3,30.02,NNE,22,0.0,5.0,80,0.00,,,0.00,325,WeatherCatV1.20B566,2013-07-10 17:51:00,
2013-07-10 10:56:00,62.7,56.8,30.02,NNE,22,0.0,1.0,81,0.00,,,0.00,332,WeatherCatV1.20B566,2013-07-10 17:56:00,
2013-07-10 11:01:00,62.9,57.0,30.02,NNE,27,3.0,3.0,81,0.00,,,0.00,369,WeatherCatV1.20B566,2013-07-10 18:01:00,
2013-07-10 11:06:00,63.2,56.9,30.02,NNE,26,0.0,0.0,80,0.00,,,0.00,366,WeatherCatV1.20B566,2013-07-10 18:06:00,
2013-07-10 11:11:00,63.5,57.2,30.02,NNE,28,0.0,0.0,80,0.00,,,0.00,364,WeatherCatV1.20B566,2013-07-10 18:11:00,
2013-07-10 11:16:00,63.7,57.4,30.03,West,263,0.0,3.0,80,0.00,,,0.00,374,WeatherCatV1.20B566,2013-07-10 18:16:00,
2013-07-10 11:21:00,63.8,57.9,30.03,NNW,346,2.0,3.0,81,0.00,,,0.00,404,WeatherCatV1.20B566,2013-07-10 18:21:00,
2013-07-10 11:26:00,64.1,57.8,30.02,WSW,252,1.0,5.0,80,0.00,,,0.00,383,WeatherCatV1.20B566,2013-07-10 18:26:00,
2013-07-10 11:31:00,64.3,58.0,30.02,WSW,254,1.0,2.0,80,0.00,,,0.00,352,WeatherCatV1.20B566,2013-07-10 18:31:00,
2013-07-10 11:36:00,64.0,58.0,30.03,WSW,244,1.0,2.0,81,0.00,,,0.00,271,WeatherCatV1.20B566,2013-07-10 18:36:00,
2013-07-10 11:41:00,63.7,57.8,30.02,WSW,244,3.0,3.0,81,0.00,,,0.00,264,WeatherCatV1.20B566,2013-07-10 18:41:00,
2013-07-10 11:46:00,63.7,58.1,30.02,WSW,246,3.0,3.0,82,0.00,,,0.00,334,WeatherCatV1.20B566,2013-07-10 18:46:00,
2013-07-10 11:51:00,63.7,57.4,30.02,WSW,256,0.0,3.0,80,0.00,,,0.00,526,WeatherCatV1.20B566,2013-07-10 18:51:00,
2013-07-10 11:56:00,64.1,58.1,30.02,WSW,256,1.0,3.0,81,0.00,,,0.00,422,WeatherCatV1.20B566,2013-07-10 18:56:00,
2013-07-10 12:01:00,64.3,58.0,30.02,WSW,252,0.0,2.0,80,0.00,,,0.00,406,WeatherCatV1.20B566,2013-07-10 19:01:00,
2013-07-10 12:06:00,64.6,58.3,30.02,WSW,250,2.0,3.0,80,0.00,,,0.00,339,WeatherCatV1.20B566,2013-07-10 19:06:00,
2013-07-10 12:11:00,64.5,57.8,30.02,WSW,249,4.0,4.0,79,0.00,,,0.00,287,WeatherCatV1.20B566,2013-07-10 19:11:00,
2013-07-10 12:16:00,64.1,57.8,30.02,WSW,247,0.0,2.0,80,0.00,,,0.00,269,WeatherCatV1.20B566,2013-07-10 19:16:00,
2013-07-10 12:21:00,64.2,58.2,30.02,WSW,247,0.0,1.0,81,0.00,,,0.00,265,WeatherCatV1.20B566,2013-07-10 19:21:00,
2013-07-10 12:26:00,64.3,58.3,30.02,WSW,244,0.0,3.0,81,0.00,,,0.00,294,WeatherCatV1.20B566,2013-07-10 19:26:00,
2013-07-10 12:31:00,64.5,58.9,30.02,WSW,244,0.0,0.0,82,0.00,,,0.00,294,WeatherCatV1.20B566,2013-07-10 19:31:00,
2013-07-10 12:36:00,64.4,58.1,30.02,WSW,244,1.0,1.0,80,0.00,,,0.00,348,WeatherCatV1.20B566,2013-07-10 19:36:00,
2013-07-10 12:40:00,64.4,58.1,30.02,SSW,193,1.0,3.0,80,0.00,,,0.00,464,WeatherCatV1.20B566,2013-07-10 19:40:00,
2013-07-10 12:46:00,64.4,58.1,30.01,SW,214,2.0,2.0,80,0.00,,,0.00,394,WeatherCatV1.20B566,2013-07-10 19:46:00,
2013-07-10 12:51:00,64.6,58.3,30.01,SSW,195,2.0,2.0,80,0.00,,,0.00,369,WeatherCatV1.20B566,2013-07-10 19:51:00,
2013-07-10 12:56:00,64.9,58.6,30.01,SSW,195,0.0,1.0,80,0.00,,,0.00,341,WeatherCatV1.20B566,2013-07-10 19:56:00,
2013-07-10 13:00:00,65.2,58.2,30.01,SSW,196,1.0,1.0,78,0.00,,,0.00,306,WeatherCatV1.20B566,2013-07-10 20:00:00,
2013-07-10 13:05:00,65.3,58.3,30.01,SSW,196,0.0,1.0,78,0.00,,,0.00,374,WeatherCatV1.20B566,2013-07-10 20:05:00,
2013-07-10 13:10:00,65.4,58.0,30.01,SSW,194,0.0,2.0,77,0.00,,,0.00,339,WeatherCatV1.20B566,2013-07-10 20:10:00,
2013-07-10 13:15:00,65.3,57.9,30.01,SSW,194,0.0,0.0,77,0.00,,,0.00,185,WeatherCatV1.20B566,2013-07-10 20:15:00,
2013-07-10 13:20:00,65.7,59.0,30.01,South,187,0.0,4.0,79,0.00,,,0.00,984,WeatherCatV1.20B566,2013-07-10 20:20:00,
2013-07-10 13:25:00,66.4,58.6,30.01,South,180,2.0,5.0,76,0.00,,,0.00,970,WeatherCatV1.20B566,2013-07-10 20:25:00,
2013-07-10 13:30:00,67.3,59.5,30.01,SSW,192,2.0,3.0,76,0.00,,,0.00,970,WeatherCatV1.20B566,2013-07-10 20:30:00,
2013-07-10 13:35:00,68.2,60.0,30.01,SW,217,0.0,5.0,75,0.00,,,0.00,969,WeatherCatV1.20B566,2013-07-10 20:35:00,
2013-07-10 13:39:00,68.6,60.3,30.01,SW,225,0.0,4.0,75,0.00,,,0.00,967,WeatherCatV1.20B566,2013-07-10 20:39:00,
2013-07-10 13:44:00,69.0,60.0,30.01,SW,233,4.0,4.0,73,0.00,,,0.00,972,WeatherCatV1.20B566,2013-07-10 20:44:00,
2013-07-10 13:49:00,68.9,60.3,30.00,SW,223,4.0,5.0,74,0.00,,,0.00,988,WeatherCatV1.20B566,2013-07-10 20:49:00,
2013-07-10 13:54:00,68.9,59.9,30.00,SW,219,5.0,6.0,73,0.00,,,0.00,1032,WeatherCatV1.20B566,2013-07-10 20:54:00,
2013-07-10 13:58:00,69.2,59.8,30.00,SW,215,3.0,4.0,72,0.00,,,0.00,1071,WeatherCatV1.20B566,2013-07-10 20:58:00,
2013-07-10 14:03:00,68.9,59.9,30.00,SW,221,3.0,4.0,73,0.00,,,0.00,236,WeatherCatV1.20B566,2013-07-10 21:03:00,
2013-07-10 14:08:00,68.4,59.4,30.00,SW,222,4.0,5.0,73,0.00,,,0.00,1081,WeatherCatV1.20B566,2013-07-10 21:08:00,
2013-07-10 14:13:00,68.7,60.4,30.00,SW,228,3.0,5.0,75,0.00,,,0.00,1086,WeatherCatV1.20B566,2013-07-10 21:13:00,
2013-07-10 14:18:00,69.1,60.8,30.00,SW,223,2.0,6.0,75,0.00,,,0.00,865,WeatherCatV1.20B566,2013-07-10 21:18:00,
2013-07-10 14:23:00,69.0,59.6,30.00,SW,214,2.0,4.0,72,0.00,,,0.00,432,WeatherCatV1.20B566,2013-07-10 21:23:00,
2013-07-10 14:28:00,68.8,60.5,30.00,SW,215,0.0,4.0,75,0.00,,,0.00,432,WeatherCatV1.20B566,2013-07-10 21:28:00,
2013-07-10 14:33:00,69.0,60.7,30.00,SW,227,2.0,4.0,75,0.00,,,0.00,756,WeatherCatV1.20B566,2013-07-10 21:33:00,
2013-07-10 14:38:00,68.7,60.4,30.00,SW,221,1.0,4.0,75,0.00,,,0.00,452,WeatherCatV1.20B566,2013-07-10 21:38:00,
2013-07-10 14:43:00,68.5,60.6,29.99,SW,221,0.0,1.0,76,0.00,,,0.00,445,WeatherCatV1.20B566,2013-07-10 21:43:00,
2013-07-10 14:48:00,69.0,61.5,29.99,WSW,239,0.0,2.0,77,0.00,,,0.00,1078,WeatherCatV1.20B566,2013-07-10 21:48:00,
2013-07-10 14:53:00,69.3,61.0,29.99,SW,231,0.0,2.0,75,0.00,,,0.00,341,WeatherCatV1.20B566,2013-07-10 21:53:00,
2013-07-10 14:58:00,68.8,60.5,29.99,SW,231,2.0,4.0,75,0.00,,,0.00,364,WeatherCatV1.20B566,2013-07-10 21:58:00,
2013-07-10 15:03:00,67.9,60.0,29.99,SW,231,1.0,1.0,76,0.00,,,0.00,468,WeatherCatV1.20B566,2013-07-10 22:03:00,
2013-07-10 15:08:00,67.6,59.8,29.99,WSW,250,3.0,3.0,76,0.00,,,0.00,1069,WeatherCatV1.20B566,2013-07-10 22:08:00,
2013-07-10 15:13:00,67.7,59.9,29.99,SW,231,1.0,4.0,76,0.00,,,0.00,914,WeatherCatV1.20B566,2013-07-10 22:13:00,
2013-07-10 15:18:00,67.7,60.2,29.99,SW,230,2.0,3.0,77,0.00,,,0.00,812,WeatherCatV1.20B566,2013-07-10 22:18:00,
2013-07-10 15:23:00,67.5,59.3,29.99,SW,230,2.0,4.0,75,0.00,,,0.00,712,WeatherCatV1.20B566,2013-07-10 22:23:00,
2013-07-10 15:28:00,66.9,59.8,29.98,SW,223,0.0,3.0,78,0.00,,,0.00,654,WeatherCatV1.20B566,2013-07-10 22:28:00,
2013-07-10 15:33:00,67.2,59.7,29.98,SW,232,1.0,4.0,77,0.00,,,0.00,520,WeatherCatV1.20B566,2013-07-10 22:33:00,
2013-07-10 15:38:00,67.3,60.2,29.98,SW,230,0.0,1.0,78,0.00,,,0.00,322,WeatherCatV1.20B566,2013-07-10 22:38:00,
2013-07-10 15:43:00,67.6,59.8,29.98,WSW,248,1.0,3.0,76,0.00,,,0.00,392,WeatherCatV1.20B566,2013-07-10 22:43:00,
2013-07-10 15:48:00,67.2,59.0,29.98,WSW,246,0.0,3.0,75,0.00,,,0.00,436,WeatherCatV1.20B566,2013-07-10 22:48:00,
2013-07-10 15:53:00,67.1,59.3,29.98,WSW,250,3.0,4.0,76,0.00,,,0.00,420,WeatherCatV1.20B566,2013-07-10 22:53:00,
2013-07-10 15:58:00,67.1,58.9,29.98,WSW,248,2.0,4.0,75,0.00,,,0.00,455,WeatherCatV1.20B566,2013-07-10 22:58:00,
2013-07-10 16:03:00,67.2,58.6,29.98,WNW,284,2.0,5.0,74,0.00,,,0.00,548,WeatherCatV1.20B566,2013-07-10 23:03:00,
2013-07-10 16:08:00,67.3,58.3,29.97,SW,235,2.0,4.0,73,0.00,,,0.00,573,WeatherCatV1.20B566,2013-07-10 23:08:00,
2013-07-10 16:13:00,67.7,58.7,29.97,ENE,59,0.0,2.0,73,0.00,,,0.00,464,WeatherCatV1.20B566,2013-07-10 23:13:00,
2013-07-10 16:18:00,68.0,58.6,29.97,WSW,256,3.0,3.0,72,0.00,,,0.00,364,WeatherCatV1.20B566,2013-07-10 23:18:00,
2013-07-10 16:23:00,67.9,58.1,29.97,WNW,294,3.0,3.0,71,0.00,,,0.00,390,WeatherCatV1.20B566,2013-07-10 23:23:00,
2013-07-10 16:28:00,67.7,57.9,29.97,WSW,250,3.0,3.0,71,0.00,,,0.00,459,WeatherCatV1.20B566,2013-07-10 23:28:00,
2013-07-10 16:33:00,67.6,57.5,29.97,WNW,287,5.0,7.0,70,0.00,,,0.00,427,WeatherCatV1.20B566,2013-07-10 23:33:00,
2013-07-10 16:38:00,66.9,56.4,29.97,NE,43,0.0,4.0,69,0.00,,,0.00,439,WeatherCatV1.20B566,2013-07-10 23:38:00,
2013-07-10 16:43:00,66.3,55.8,29.96,SW,220,0.0,3.0,69,0.00,,,0.00,348,WeatherCatV1.20B566,2013-07-10 23:43:00,
2013-07-10 16:48:00,66.1,56.4,29.97,North,349,0.0,3.0,71,0.00,,,0.00,352,WeatherCatV1.20B566,2013-07-10 23:48:00,
2013-07-10 16:53:00,65.8,55.7,29.96,SSW,203,0.0,2.0,70,0.00,,,0.00,480,WeatherCatV1.20B566,2013-07-10 23:53:00,
2013-07-10 16:58:00,65.9,55.8,29.96,WSW,245,0.0,2.0,70,0.00,,,0.00,438,WeatherCatV1.20B566,2013-07-10 23:58:00,
2013-07-10 17:03:00,66.2,56.1,29.96,West,275,2.0,4.0,70,0.00,,,0.00,673,WeatherCatV1.20B566,2013-07-11 00:03:00,
2013-07-10 17:08:00,66.3,55.8,29.96,SE,127,5.0,8.0,69,0.00,,,0.00,359,WeatherCatV1.20B566,2013-07-11 00:08:00,
2013-07-10 17:13:00,65.9,55.8,29.96,NE,46,1.0,1.0,70,0.00,,,0.00,285,WeatherCatV1.20B566,2013-07-11 00:13:00,
2013-07-10 17:18:00,65.6,55.5,29.95,NE,34,0.0,5.0,70,0.00,,,0.00,352,WeatherCatV1.20B566,2013-07-11 00:18:00,
2013-07-10 17:23:00,65.8,56.1,29.95,NW,319,1.0,2.0,71,0.00,,,0.00,631,WeatherCatV1.20B566,2013-07-11 00:23:00,
2013-07-10 17:28:00,66.4,55.9,29.95,WSW,238,1.0,5.0,69,0.00,,,0.00,323,WeatherCatV1.20B566,2013-07-11 00:28:00,
2013-07-10 17:33:00,66.1,55.2,29.95,NW,318,0.0,4.0,68,0.00,,,0.00,251,WeatherCatV1.20B566,2013-07-11 00:33:00,
2013-07-10 17:38:00,65.7,54.8,29.95,NNW,336,1.0,8.0,68,0.00,,,0.00,227,WeatherCatV1.20B566,2013-07-11 00:38:00,
2013-07-10 17:43:00,65.1,55.1,29.95,South,186,1.0,3.0,70,0.00,,,0.00,519,WeatherCatV1.20B566,2013-07-11 00:43:00,
2013-07-10 17:48:00,65.3,55.3,29.95,NNW,331,4.0,4.0,70,0.00,,,0.00,584,WeatherCatV1.20B566,2013-07-11 00:48:00,
2013-07-10 17:53:00,65.8,55.3,29.95,North,355,0.0,4.0,69,0.00,,,0.00,580,WeatherCatV1.20B566,2013-07-11 00:53:00,
2013-07-10 17:58:00,66.0,55.1,29.94,North,355,0.0,5.0,68,0.00,,,0.00,410,WeatherCatV1.20B566,2013-07-11 00:58:00,
2013-07-10 18:03:00,66.3,55.8,29.94,NNW,329,1.0,1.0,69,0.00,,,0.00,552,WeatherCatV1.20B566,2013-07-11 01:03:00,
2013-07-10 18:08:00,66.9,55.6,29.94,NNW,336,0.0,3.0,67,0.00,,,0.00,524,WeatherCatV1.20B566,2013-07-11 01:08:00,
2013-07-10 18:13:00,67.2,55.0,29.94,NNE,16,0.0,5.0,65,0.00,,,0.00,501,WeatherCatV1.20B566,2013-07-11 01:13:00,
2013-07-10 18:18:00,66.9,55.2,29.94,NW,305,0.0,6.0,66,0.00,,,0.00,478,WeatherCatV1.20B566,2013-07-11 01:18:00,
2013-07-10 18:23:00,66.9,54.7,29.94,WSW,248,0.0,8.0,65,0.00,,,0.00,450,WeatherCatV1.20B566,2013-07-11 01:23:00,
2013-07-10 18:28:00,66.7,55.0,29.94,WSW,254,2.0,7.0,66,0.00,,,0.00,427,WeatherCatV1.20B566,2013-07-11 01:28:00,
2013-07-10 18:33:00,66.7,54.6,29.94,NNW,334,5.0,5.0,65,0.00,,,0.00,404,WeatherCatV1.20B566,2013-07-11 01:33:00,
2013-07-10 18:38:00,66.4,54.3,29.93,West,263,1.0,1.0,65,0.00,,,0.00,388,WeatherCatV1.20B566,2013-07-11 01:38:00,
2013-07-10 18:43:00,66.2,54.1,29.93,WNW,284,2.0,6.0,65,0.00,,,0.00,366,WeatherCatV1.20B566,2013-07-11 01:43:00,
2013-07-10 18:48:00,66.1,54.0,29.94,NNE,15,0.0,5.0,65,0.00,,,0.00,357,WeatherCatV1.20B566,2013-07-11 01:48:00,
2013-07-10 18:53:00,66.0,53.5,29.93,NW,321,0.0,6.0,64,0.00,,,0.00,274,WeatherCatV1.20B566,2013-07-11 01:53:00,
2013-07-10 18:58:00,65.7,53.6,29.93,WNW,286,0.0,4.0,65,0.00,,,0.00,339,WeatherCatV1.20B566,2013-07-11 01:58:00,
2013-07-10 19:03:00,65.3,54.1,29.93,NW,318,4.0,4.0,67,0.00,,,0.00,141,WeatherCatV1.20B566,2013-07-11 02:03:00,
2013-07-10 19:08:00,64.3,52.7,29.93,NNW,340,1.0,5.0,66,0.00,,,0.00,63,WeatherCatV1.20B566,2013-07-11 02:08:00,
2013-07-10 19:13:00,63.5,52.7,29.93,North,355,0.0,0.0,68,0.00,,,0.00,65,WeatherCatV1.20B566,2013-07-11 02:13:00,
2013-07-10 19:18:00,62.8,52.9,29.93,North,5,0.0,5.0,70,0.00,,,0.00,63,WeatherCatV1.20B566,2013-07-11 02:18:00,
2013-07-10 19:23:00,62.2,53.1,29.93,West,279,0.0,0.0,72,0.00,,,0.00,65,WeatherCatV1.20B566,2013-07-11 02:23:00,
2013-07-10 19:28:00,61.7,53.0,29.93,NE,53,0.0,3.0,73,0.00,,,0.00,77,WeatherCatV1.20B566,2013-07-11 02:28:00,
2013-07-10 19:33:00,61.1,52.7,29.93,NW,310,0.0,5.0,74,0.00,,,0.00,77,WeatherCatV1.20B566,2013-07-11 02:33:00,
2013-07-10 19:38:00,60.9,52.6,29.93,NW,316,0.0,2.0,74,0.00,,,0.00,69,WeatherCatV1.20B566,2013-07-11 02:38:00,
2013-07-10 19:43:00,60.7,52.4,29.93,West,261,0.0,1.0,74,0.00,,,0.00,60,WeatherCatV1.20B566,2013-07-11 02:43:00,
2013-07-10 19:48:00,60.5,52.2,29.93,NNW,331,0.0,3.0,74,0.00,,,0.00,49,WeatherCatV1.20B566,2013-07-11 02:48:00,
2013-07-10 19:53:00,60.4,52.4,29.93,NNE,15,0.0,2.0,75,0.00,,,0.00,40,WeatherCatV1.20B566,2013-07-11 02:53:00,
2013-07-10 19:58:00,60.1,52.1,29.93,WNW,295,4.0,5.0,75,0.00,,,0.00,37,WeatherCatV1.20B566,2013-07-11 02:58:00,
2013-07-10 20:03:00,60.0,52.4,29.93,WNW,297,0.0,0.0,76,0.00,,,0.00,40,WeatherCatV1.20B566,2013-07-11 03:03:00,
2013-07-10 20:08:00,59.9,52.3,29.93,NNW,327,0.0,0.0,76,0.00,,,0.00,44,WeatherCatV1.20B566,2013-07-11 03:08:00,
2013-07-10 20:13:00,59.8,52.2,29.93,NNW,333,0.0,1.0,76,0.00,,,0.00,58,WeatherCatV1.20B566,2013-07-11 03:13:00,
2013-07-10 20:18:00,59.8,52.2,29.92,NNW,341,1.0,1.0,76,0.00,,,0.00,47,WeatherCatV1.20B566,2013-07-11 03:18:00,
2013-07-10 20:23:00,59.7,51.8,29.92,WSW,249,0.0,3.0,75,0.00,,,0.00,33,WeatherCatV1.20B566,2013-07-11 03:23:00,
2013-07-10 20:28:00,59.5,51.6,29.93,WSW,248,1.0,5.0,75,0.00,,,0.00,32,WeatherCatV1.20B566,2013-07-11 03:28:00,
2013-07-10 20:33:00,59.4,51.8,29.92,NW,304,0.0,1.0,76,0.00,,,0.00,25,WeatherCatV1.20B566,2013-07-11 03:33:00,
2013-07-10 20:38:00,59.2,51.3,29.92,WNW,295,0.0,2.0,75,0.00,,,0.00,21,WeatherCatV1.20B566,2013-07-11 03:38:00,
2013-07-10 20:43:00,58.9,51.3,29.93,WNW,296,0.0,2.0,76,0.00,,,0.00,18,WeatherCatV1.20B566,2013-07-11 03:43:00,
2013-07-10 20:48:00,58.6,51.4,29.93,WNW,292,0.0,0.0,77,0.00,,,0.00,14,WeatherCatV1.20B566,2013-07-11 03:48:00,
2013-07-10 20:53:00,58.3,51.5,29.93,ENE,67,0.0,0.0,78,0.00,,,0.00,11,WeatherCatV1.20B566,2013-07-11 03:53:00,
2013-07-10 20:58:00,58.0,51.2,29.93,ENE,67,0.0,0.0,78,0.00,,,0.00,7,WeatherCatV1.20B566,2013-07-11 03:58:00,
2013-07-10 21:01:00,57.9,51.1,29.93,ENE,67,0.0,0.0,78,0.00,,,0.00,5,WeatherCatV1.20B566,2013-07-11 04:01:00,
2013-07-10 21:06:00,57.6,51.1,29.93,ENE,67,0.0,0.0,79,0.00,,,0.00,0,WeatherCatV1.20B566,2013-07-11 04:06:00,
2013-07-10 21:11:00,57.3,51.2,29.93,NNE,13,0.0,3.0,80,0.00,,,0.00,0,WeatherCatV1.20B566,2013-07-11 04:11:00,
2013-07-10 21:16:00,57.1,51.0,29.93,NNE,13,0.0,0.0,80,0.00,,,0.00,0,WeatherCatV1.20B566,2013-07-11 04:16:00,
2013-07-10 21:21:00,57.0,51.2,29.93,NNE,13,0.0,0.0,81,0.00,,,0.00,0,WeatherCatV1.20B566,2013-07-11 04:21:00,
2013-07-10 21:26:00,56.8,51.0,29.93,NNE,13,0.0,0.0,81,0.00,,,0.00,0,WeatherCatV1.20B566,2013-07-11 04:26:00,
2013-07-10 21:31:00,56.6,50.8,29.93,NNE,13,0.0,0.0,81,0.00,,,0.00,0,WeatherCatV1.20B566,2013-07-11 04:31:00,
2013-07-10 21:36:00,56.3,50.9,29.93,NNE,13,0.0,0.0,82,0.00,,,0.00,0,WeatherCatV1.20B566,2013-07-11 04:36:00,
2013-07-10 21:41:00,56.1,50.7,29.93,NNE,13,0.0,0.0,82,0.00,,,0.00,0,WeatherCatV1.20B566,2013-07-11 04:41:00,
2013-07-10 21:46:00,56.0,50.9,29.93,ENE,68,0.0,3.0,83,0.00,,,0.00,0,WeatherCatV1.20B566,2013-07-11 04:46:00,
2013-07-10 21:51:00,55.9,50.8,29.93,ENE,69,1.0,2.0,83,0.00,,,0.00,0,WeatherCatV1.20B566,2013-07-11 04:51:00,
2013-07-10 21:55:00,55.8,50.7,29.93,ENE,59,0.0,3.0,83,0.00,,,0.00,0,WeatherCatV1.20B566,2013-07-11 04:55:00,
2013-07-10 22:00:00,55.7,50.6,29.93,WNW,302,0.0,3.0,83,0.00,,,0.00,0,WeatherCatV1.20B566,2013-07-11 05:00:00,
2013-07-10 22:05:00,55.7,50.6,29.93,NE,41,0.0,0.0,83,0.00,,,0.00,0,WeatherCatV1.20B566,2013-07-11 05:05:00,
2013-07-10 22:10:00,55.7,50.3,29.93,NNE,27,0.0,3.0,82,0.00,,,0.00,0,WeatherCatV1.20B566,2013-07-11 05:10:00,
2013-07-10 22:15:00,55.7,50.3,29.94,NNE,27,1.0,1.0,82,0.00,,,0.00,0,WeatherCatV1.20B566,2013-07-11 05:15:00,
2013-07-10 22:20:00,55.7,50.3,29.94,WNW,288,0.0,0.0,82,0.00,,,0.00,0,WeatherCatV1.20B566,2013-07-11 05:20:00,
2013-07-10 22:25:00,55.7,50.3,29.94,WNW,287,0.0,2.0,82,0.00,,,0.00,0,WeatherCatV1.20B566,2013-07-11 05:25:00,
2013-07-10 22:30:00,55.8,50.4,29.94,WNW,302,0.0,0.0,82,0.00,,,0.00,0,WeatherCatV1.20B566,2013-07-11 05:30:00,
2013-07-10 22:35:00,56.0,50.2,29.94,North,355,0.0,1.0,81,0.00,,,0.00,0,WeatherCatV1.20B566,2013-07-11 05:35:00,
2013-07-10 22:40:00,56.1,50.0,29.94,North,5,0.0,1.0,80,0.00,,,0.00,0,WeatherCatV1.20B566,2013-07-11 05:40:00,
2013-07-10 22:45:00,56.2,50.1,29.94,WNW,286,0.0,1.0,80,0.00,,,0.00,0,WeatherCatV1.20B566,2013-07-11 05:45:00,
2013-07-10 22:50:00,56.3,50.2,29.94,WSW,247,0.0,4.0,80,0.00,,,0.00,0,WeatherCatV1.20B566,2013-07-11 05:50:00,
2013-07-10 22:55:00,56.4,50.0,29.94,WSW,238,0.0,1.0,79,0.00,,,0.00,0,WeatherCatV1.20B566,2013-07-11 05:55:00,
2013-07-10 23:01:00,56.5,50.1,29.94,North,0,4.0,5.0,79,0.00,,,0.00,0,WeatherCatV1.20B566,2013-07-11 06:01:00,
2013-07-10 23:06:00,56.6,50.2,29.94,West,275,0.0,1.0,79,0.00,,,0.00,0,WeatherCatV1.20B566,2013-07-11 06:06:00,
2013-07-10 23:11:00,56.6,50.2,29.94,ESE,119,0.0,0.0,79,0.00,,,0.00,0,WeatherCatV1.20B566,2013-07-11 06:11:00,
2013-07-10 23:16:00,56.7,50.3,29.94,NNW,344,0.0,1.0,79,0.00,,,0.00,0,WeatherCatV1.20B566,2013-07-11 06:16:00,
2013-07-10 23:21:00,56.7,50.6,29.95,NNW,344,0.0,0.0,80,0.00,,,0.00,0,WeatherCatV1.20B566,2013-07-11 06:21:00,
2013-07-10 23:26:00,56.6,50.2,29.95,NNW,344,0.0,0.0,79,0.00,,,0.00,0,WeatherCatV1.20B566,2013-07-11 06:26:00,
2013-07-10 23:30:00,56.6,50.5,29.95,NNW,344,0.0,0.0,80,0.00,,,0.00,0,WeatherCatV1.20B566,2013-07-11 06:30:00,
2013-07-10 23:35:00,56.6,50.5,29.95,NNW,344,0.0,0.0,80,0.00,,,0.00,0,WeatherCatV1.20B566,2013-07-11 06:35:00,
2013-07-10 23:40:00,56.6,50.5,29.95,NNW,344,0.0,0.0,80,0.00,,,0.00,0,WeatherCatV1.20B566,2013-07-11 06:40:00,
2013-07-10 23:45:00,56.6,50.5,29.95,NNW,344,0.0,0.0,80,0.00,,,0.00,0,WeatherCatV1.20B566,2013-07-11 06:45:00,
2013-07-10 23:50:00,56.5,50.4,29.95,NNW,344,0.0,0.0,80,0.00,,,0.00,0,WeatherCatV1.20B566,2013-07-11 06:50:00,
2013-07-10 23:55:00,56.5,50.4,29.95,NNW,344,0.0,0.0,80,0.00,,,0.00,0,WeatherCatV1.20B566,2013-07-11 06:55:00,